Вернуться в каталог

ARIANE 5 DEB

SYLDA

АктивенHEO
NORAD 38554·DEBRIS·🇫🇷 France

Запущен Jul 5, 2012 с Guiana Space Centre

Loading…

Ближайшие Пролёты (ближайшие 24 часа)

TLE

СвежийSource: Space-Track

Эпоха: Sep 14, 2026, 08:58 UTC

1 38554U 12035D   26257.37402860  .00002576  00000-0  11353-2 0  9993
2 38554   5.7081 208.3926 5830823 209.3178  99.0018  4.24642843159130

Отслеживайте ARIANE 5 DEB в реальном времени с AllMySat

Download on the App Store